EIN39A EDDH-EIDW

Flight info

Callsign EIN39A
Flight time 1h 36m
Altitude 36000
Route WSN5G/33 WSN N125 ITMIZ DCT MIMVA DCT OTBED L60 PENIL UL28 LELDO M145 BAGSO BAGSO4L
Aircraft A320/M-SDE3FGHIRWY/LB1

Departure

Time 2026-04-25 09:31
Airport Hamburg Helmut Schmidt Airport (EDDH)

Arrival

Time 2026-04-25 11:07
Airport Dublin Airport (EIDW)
Time Latitude Longitude Altitude Speed Heading
2026-04-25 09:09 53.63239 10.00018 49 ft 0 kts 320°
2026-04-25 09:22 53.63230 10.00029 48 ft 4 kts 320°
2026-04-25 09:22 53.63211 10.00057 47 ft 4 kts 339°
2026-04-25 09:22 53.63190 10.00055 43 ft 3 kts 47°
2026-04-25 09:22 53.63177 10.00029 45 ft 2 kts 50°
2026-04-25 09:23 53.63176 10.00026 45 ft 0 kts 50°
2026-04-25 09:25 53.63176 10.00027 45 ft 1 kts 50°
2026-04-25 09:26 53.63198 10.00071 43 ft 8 kts 50°
2026-04-25 09:26 53.63220 10.00153 48 ft 7 kts 98°
2026-04-25 09:26 53.63152 10.00189 48 ft 13 kts 177°
2026-04-25 09:26 53.63079 10.00188 48 ft 9 kts 192°
2026-04-25 09:27 53.63024 10.00138 46 ft 9 kts 214°
2026-04-25 09:27 53.62967 10.00075 46 ft 11 kts 212°
2026-04-25 09:27 53.62916 9.99981 48 ft 11 kts 230°
2026-04-25 09:27 53.62895 9.99911 47 ft 0 kts 244°
2026-04-25 09:28 53.62894 9.99907 47 ft 3 kts 244°
2026-04-25 09:28 53.62867 9.99814 45 ft 13 kts 244°
2026-04-25 09:28 53.62882 9.99730 45 ft 4 kts 344°
2026-04-25 09:29 53.62884 9.99727 45 ft 0 kts 334°
2026-04-25 09:30 53.62953 9.99672 45 ft 37 kts 334°
2026-04-25 09:30 53.63392 9.99293 46 ft 102 kts 333°
2026-04-25 09:30 53.64182 9.98609 48 ft 151 kts 334°
2026-04-25 09:30 53.65166 9.97807 505 ft 158 kts 328°
2026-04-25 09:31 53.66148 9.96980 1238 ft 158 kts 328°
2026-04-25 09:31 53.66812 9.96406 1614 ft 167 kts 328°
2026-04-25 09:31 53.68309 9.95098 2120 ft 194 kts 328°
2026-04-25 09:31 53.69523 9.94043 2878 ft 197 kts 330°
2026-04-25 09:32 53.70695 9.92933 3730 ft 193 kts 318°
2026-04-25 09:32 53.71439 9.91078 4485 ft 197 kts 288°
2026-04-25 09:32 53.71393 9.88625 4885 ft 229 kts 259°
2026-04-25 09:32 53.70877 9.85948 5385 ft 247 kts 257°
2026-04-25 09:33 53.70313 9.83181 6184 ft 251 kts 256°
2026-04-25 09:33 53.69735 9.80385 6994 ft 254 kts 257°
2026-04-25 09:33 53.69152 9.77545 7810 ft 257 kts 257°
2026-04-25 09:33 53.68572 9.74681 8628 ft 259 kts 257°
2026-04-25 09:34 53.67996 9.71791 9476 ft 261 kts 258°
2026-04-25 09:34 53.67415 9.68872 10273 ft 264 kts 257°
2026-04-25 09:34 53.66817 9.65833 10596 ft 284 kts 257°
2026-04-25 09:34 53.66178 9.62552 10863 ft 303 kts 257°
2026-04-25 09:35 53.65483 9.59144 11467 ft 312 kts 252°
2026-04-25 09:35 53.64410 9.55902 12162 ft 323 kts 240°
2026-04-25 09:35 53.63083 9.52834 12896 ft 325 kts 239°
2026-04-25 09:35 53.61751 9.49743 13605 ft 327 kts 239°
2026-04-25 09:36 53.60408 9.46613 14220 ft 332 kts 239°
2026-04-25 09:36 53.59049 9.43445 14820 ft 336 kts 239°
2026-04-25 09:36 53.57675 9.40248 15423 ft 339 kts 239°
2026-04-25 09:36 53.56283 9.37024 16023 ft 342 kts 239°
2026-04-25 09:37 53.54896 9.33815 16605 ft 345 kts 239°
2026-04-25 09:37 53.53478 9.30532 17171 ft 349 kts 239°
2026-04-25 09:37 53.52043 9.27211 17753 ft 353 kts 239°
2026-04-25 09:37 53.50595 9.23865 18327 ft 356 kts 239°
2026-04-25 09:38 53.49131 9.20484 18834 ft 359 kts 239°
2026-04-25 09:38 53.47655 9.17079 19357 ft 362 kts 239°
2026-04-25 09:38 53.46165 9.13654 19871 ft 365 kts 239°
2026-04-25 09:38 53.44662 9.10203 20388 ft 368 kts 239°
2026-04-25 09:39 53.43149 9.06731 20906 ft 370 kts 239°
2026-04-25 09:39 53.41622 9.03229 21414 ft 373 kts 239°
2026-04-25 09:39 53.40083 8.99705 21919 ft 376 kts 239°
2026-04-25 09:40 53.36952 8.92562 22861 ft 383 kts 238°
2026-04-25 09:40 53.35397 8.88927 23336 ft 384 kts 243°
2026-04-25 09:40 53.34176 8.84978 23782 ft 381 kts 252°
2026-04-25 09:40 53.33257 8.80809 24172 ft 383 kts 254°
2026-04-25 09:41 53.32339 8.76622 24567 ft 385 kts 254°
2026-04-25 09:41 53.31405 8.72416 24914 ft 387 kts 254°
2026-04-25 09:41 53.30459 8.68179 25274 ft 390 kts 254°
2026-04-25 09:41 53.29508 8.63909 25643 ft 392 kts 254°
2026-04-25 09:42 53.28566 8.59634 26006 ft 394 kts 255°
2026-04-25 09:42 53.27622 8.55332 26357 ft 396 kts 255°
2026-04-25 09:42 53.26675 8.50998 26712 ft 397 kts 255°
2026-04-25 09:42 53.25756 8.46636 27062 ft 398 kts 256°
2026-04-25 09:43 53.24914 8.42286 27407 ft 400 kts 257°
2026-04-25 09:43 53.24086 8.37781 27761 ft 401 kts 258°
2026-04-25 09:43 53.23289 8.33377 28085 ft 403 kts 258°
2026-04-25 09:43 53.22460 8.28834 28411 ft 405 kts 258°
2026-04-25 09:44 53.21636 8.24393 28728 ft 407 kts 257°
2026-04-25 09:44 53.20784 8.19885 29021 ft 409 kts 257°
2026-04-25 09:44 53.19918 8.15352 29307 ft 411 kts 257°
2026-04-25 09:44 53.19044 8.10800 29606 ft 413 kts 257°
2026-04-25 09:45 53.18172 8.06229 29896 ft 414 kts 258°
2026-04-25 09:45 53.17303 8.01637 30177 ft 416 kts 258°
2026-04-25 09:45 53.16436 7.97026 30423 ft 417 kts 258°
2026-04-25 09:45 53.15568 7.92413 30648 ft 419 kts 258°
2026-04-25 09:46 53.14977 7.89278 30797 ft 420 kts 258°
2026-04-25 09:46 53.14096 7.84630 31018 ft 421 kts 258°
2026-04-25 09:46 53.13209 7.79978 31260 ft 421 kts 258°
2026-04-25 09:46 53.12319 7.75342 31574 ft 420 kts 258°
2026-04-25 09:47 53.11430 7.70716 31883 ft 419 kts 258°
2026-04-25 09:47 53.10786 7.66102 32180 ft 411 kts 267°
2026-04-25 09:47 53.10596 7.61393 32459 ft 405 kts 275°
2026-04-25 09:47 53.10678 7.56717 32751 ft 404 kts 276°
2026-04-25 09:48 53.10760 7.52050 33056 ft 403 kts 276°
2026-04-25 09:48 53.10836 7.47381 33356 ft 402 kts 276°
2026-04-25 09:48 53.10909 7.42741 33657 ft 401 kts 276°
2026-04-25 09:48 53.10983 7.38107 33962 ft 400 kts 276°
2026-04-25 09:49 53.11054 7.33478 34251 ft 399 kts 275°
2026-04-25 09:49 53.11118 7.28866 34498 ft 399 kts 275°
2026-04-25 09:49 53.11181 7.24251 34720 ft 398 kts 275°
2026-04-25 09:49 53.11241 7.19645 34947 ft 398 kts 275°
2026-04-25 09:50 53.11299 7.15048 35153 ft 398 kts 275°
2026-04-25 09:50 53.11357 7.10434 35306 ft 399 kts 275°
2026-04-25 09:50 53.11419 7.05840 35478 ft 399 kts 275°
2026-04-25 09:50 53.11478 7.01191 35666 ft 400 kts 275°
2026-04-25 09:51 53.11531 6.96568 35850 ft 400 kts 275°
2026-04-25 09:51 53.11584 6.91941 36040 ft 399 kts 275°
2026-04-25 09:51 53.11636 6.87321 36166 ft 399 kts 275°
2026-04-25 09:51 53.11681 6.82712 36193 ft 397 kts 275°
2026-04-25 09:52 53.11768 6.73530 36194 ft 396 kts 275°
2026-04-25 09:52 53.11854 6.64359 36190 ft 396 kts 275°
2026-04-25 09:53 53.11923 6.55184 36188 ft 396 kts 274°
2026-04-25 09:53 53.11995 6.46064 36190 ft 396 kts 274°
2026-04-25 09:54 53.12063 6.36893 36187 ft 396 kts 274°
2026-04-25 09:54 53.12118 6.27720 36185 ft 396 kts 274°
2026-04-25 09:55 53.12166 6.18556 36184 ft 396 kts 274°
2026-04-25 09:55 53.12210 6.09376 36166 ft 396 kts 274°
2026-04-25 09:56 53.12248 6.00208 36171 ft 396 kts 274°
2026-04-25 09:56 53.12268 5.91028 36173 ft 397 kts 274°
2026-04-25 09:57 53.12291 5.81846 36175 ft 397 kts 274°
2026-04-25 09:57 53.12305 5.72658 36177 ft 397 kts 274°
2026-04-25 09:58 53.12313 5.63471 36180 ft 397 kts 274°
2026-04-25 09:58 53.12310 5.54323 36144 ft 398 kts 273°
2026-04-25 09:59 53.12297 5.45076 36184 ft 401 kts 272°
2026-04-25 09:59 53.12281 5.35792 36192 ft 401 kts 272°
2026-04-25 10:00 53.12259 5.26503 36203 ft 401 kts 272°
2026-04-25 10:00 53.12227 5.17215 36207 ft 401 kts 272°
2026-04-25 10:01 53.12192 5.07932 36200 ft 401 kts 272°
2026-04-25 10:01 53.12154 4.98642 36199 ft 402 kts 272°
2026-04-25 10:02 53.12103 4.89345 36204 ft 402 kts 272°
2026-04-25 10:02 53.12043 4.80034 36207 ft 402 kts 272°
2026-04-25 10:03 53.11969 4.70777 36209 ft 402 kts 272°
2026-04-25 10:03 53.11894 4.61471 36212 ft 402 kts 272°
2026-04-25 10:04 53.11814 4.52160 36212 ft 402 kts 272°
2026-04-25 10:04 53.11725 4.42850 36213 ft 402 kts 272°
2026-04-25 10:05 53.11638 4.33541 36217 ft 402 kts 272°
2026-04-25 10:05 53.11538 4.24225 36219 ft 402 kts 271°
2026-04-25 10:06 53.11429 4.14915 36219 ft 402 kts 271°
2026-04-25 10:06 53.11310 4.05605 36205 ft 403 kts 271°
2026-04-25 10:07 53.11183 3.96281 36203 ft 403 kts 271°
2026-04-25 10:07 53.11048 3.86951 36205 ft 403 kts 271°
2026-04-25 10:08 53.10906 3.77680 36207 ft 404 kts 271°
2026-04-25 10:08 53.10768 3.68335 36209 ft 404 kts 271°
2026-04-25 10:09 53.10615 3.58986 36210 ft 404 kts 271°
2026-04-25 10:09 53.10451 3.49637 36195 ft 404 kts 270°
2026-04-25 10:10 53.10283 3.40283 36205 ft 405 kts 270°
2026-04-25 10:10 53.10129 3.30914 36206 ft 404 kts 274°
2026-04-25 10:11 53.10715 3.21634 36207 ft 403 kts 278°
2026-04-25 10:11 53.11372 3.12361 36203 ft 403 kts 278°
2026-04-25 10:12 53.12015 3.03086 36192 ft 404 kts 278°
2026-04-25 10:13 53.12956 2.89139 36194 ft 405 kts 277°
2026-04-25 10:13 53.13568 2.79882 36196 ft 405 kts 277°
2026-04-25 10:14 53.14192 2.70617 36205 ft 405 kts 277°
2026-04-25 10:14 53.14811 2.61294 36206 ft 405 kts 277°
2026-04-25 10:15 53.15421 2.51959 36187 ft 405 kts 277°
2026-04-25 10:15 53.16016 2.42612 36189 ft 406 kts 277°
2026-04-25 10:16 53.16605 2.33248 36197 ft 406 kts 277°
2026-04-25 10:16 53.17195 2.23876 36200 ft 407 kts 277°
2026-04-25 10:17 53.17767 2.14493 36195 ft 407 kts 276°
2026-04-25 10:17 53.18333 2.05111 36204 ft 407 kts 276°
2026-04-25 10:18 53.18899 1.95723 36198 ft 407 kts 276°
2026-04-25 10:18 53.19458 1.86374 36194 ft 408 kts 276°
2026-04-25 10:19 53.20006 1.76950 36207 ft 409 kts 276°
2026-04-25 10:19 53.20551 1.67513 36200 ft 409 kts 276°
2026-04-25 10:20 53.21085 1.58067 36205 ft 409 kts 276°
2026-04-25 10:20 53.21615 1.48615 36199 ft 409 kts 275°
2026-04-25 10:21 53.22140 1.39160 36202 ft 409 kts 275°
2026-04-25 10:21 53.22652 1.29697 36203 ft 410 kts 275°
2026-04-25 10:22 53.23159 1.20215 36202 ft 410 kts 275°
2026-04-25 10:22 53.23662 1.10742 36203 ft 410 kts 275°
2026-04-25 10:23 53.24153 1.01326 36203 ft 410 kts 274°
2026-04-25 10:23 53.24640 0.91832 36199 ft 410 kts 274°
2026-04-25 10:24 53.25115 0.82333 36210 ft 411 kts 274°
2026-04-25 10:24 53.25591 0.72822 36207 ft 411 kts 274°
2026-04-25 10:25 53.26056 0.63294 36206 ft 411 kts 274°
2026-04-25 10:25 53.26507 0.53766 36206 ft 411 kts 274°
2026-04-25 10:26 53.26959 0.44232 36197 ft 412 kts 274°
2026-04-25 10:26 53.27397 0.34742 36197 ft 413 kts 274°
2026-04-25 10:27 53.27830 0.25175 36195 ft 413 kts 273°
2026-04-25 10:27 53.28262 0.15609 36197 ft 413 kts 273°
2026-04-25 10:28 53.28682 0.06017 36199 ft 414 kts 273°
2026-04-25 10:28 53.29500 -0.03499 36200 ft 414 kts 278°
2026-04-25 10:29 53.30494 -0.13004 36199 ft 416 kts 278°
2026-04-25 10:29 53.31481 -0.22536 36201 ft 416 kts 278°
2026-04-25 10:30 53.32456 -0.32090 36198 ft 417 kts 278°
2026-04-25 10:30 53.33416 -0.41656 36200 ft 417 kts 278°
2026-04-25 10:31 53.34373 -0.51153 36201 ft 417 kts 278°
2026-04-25 10:31 53.35333 -0.60732 36203 ft 417 kts 278°
2026-04-25 10:32 53.36284 -0.70330 36203 ft 417 kts 278°
2026-04-25 10:32 53.37226 -0.79924 36210 ft 418 kts 278°
2026-04-25 10:33 53.38163 -0.89518 36208 ft 418 kts 278°
2026-04-25 10:33 53.39089 -0.99122 36205 ft 418 kts 278°
2026-04-25 10:34 53.40006 -1.08732 36206 ft 418 kts 277°
2026-04-25 10:34 53.40912 -1.18369 36206 ft 419 kts 277°
2026-04-25 10:35 53.41817 -1.28033 36190 ft 420 kts 277°
2026-04-25 10:35 53.42723 -1.37713 36191 ft 420 kts 277°
2026-04-25 10:36 53.43610 -1.47334 36193 ft 421 kts 277°
2026-04-25 10:36 53.44495 -1.57038 36201 ft 421 kts 277°
2026-04-25 10:37 53.45374 -1.66756 36201 ft 422 kts 276°
2026-04-25 10:37 53.46242 -1.76489 36198 ft 422 kts 276°
2026-04-25 10:38 53.47105 -1.86226 36203 ft 422 kts 276°
2026-04-25 10:38 53.47830 -1.94401 36197 ft 423 kts 276°
2026-04-25 10:39 53.48682 -2.04165 36200 ft 423 kts 276°
2026-04-25 10:39 53.49516 -2.13877 36208 ft 423 kts 276°
2026-04-25 10:40 53.50355 -2.23651 36212 ft 423 kts 276°
2026-04-25 10:40 53.51180 -2.33441 36216 ft 423 kts 276°
2026-04-25 10:41 53.51999 -2.43215 36219 ft 423 kts 276°
2026-04-25 10:41 53.52815 -2.52987 36229 ft 423 kts 276°
2026-04-25 10:42 53.53611 -2.62784 36234 ft 423 kts 276°
2026-04-25 10:42 53.54401 -2.72570 36231 ft 423 kts 276°
2026-04-25 10:43 53.55194 -2.82371 36230 ft 423 kts 276°
2026-04-25 10:43 53.55981 -2.92178 36219 ft 423 kts 275°
2026-04-25 10:44 53.56751 -3.01988 36228 ft 423 kts 275°
2026-04-25 10:44 53.57511 -3.11796 36241 ft 423 kts 275°
2026-04-25 10:45 53.58264 -3.21630 36215 ft 424 kts 275°
2026-04-25 10:45 53.59009 -3.31419 36036 ft 426 kts 275°
2026-04-25 10:45 53.59367 -3.36418 34953 ft 435 kts 274°
2026-04-25 10:46 53.59665 -3.41471 33954 ft 432 kts 272°
2026-04-25 10:46 53.59914 -3.46485 32823 ft 428 kts 272°
2026-04-25 10:46 53.60132 -3.51423 31777 ft 423 kts 271°
2026-04-25 10:46 53.60339 -3.56367 30771 ft 419 kts 271°
2026-04-25 10:47 53.60546 -3.61226 29788 ft 414 kts 271°
2026-04-25 10:47 53.60756 -3.65969 29378 ft 401 kts 271°
2026-04-25 10:47 53.60969 -3.70626 28898 ft 396 kts 272°
2026-04-25 10:47 53.61184 -3.75211 28453 ft 391 kts 272°
2026-04-25 10:48 53.61397 -3.79743 28015 ft 386 kts 272°
2026-04-25 10:48 53.61605 -3.84224 27588 ft 382 kts 271°
2026-04-25 10:48 53.61807 -3.88658 27163 ft 378 kts 271°
2026-04-25 10:48 53.62007 -3.93049 26746 ft 374 kts 271°
2026-04-25 10:49 53.62203 -3.97395 26326 ft 371 kts 271°
2026-04-25 10:49 53.62396 -4.01713 25900 ft 368 kts 271°
2026-04-25 10:49 53.62583 -4.05991 25468 ft 365 kts 271°
2026-04-25 10:49 53.62765 -4.10241 25049 ft 362 kts 271°
2026-04-25 10:50 53.62945 -4.14469 24590 ft 361 kts 271°
2026-04-25 10:50 53.63125 -4.18670 24155 ft 359 kts 271°
2026-04-25 10:50 53.63303 -4.22859 23677 ft 358 kts 271°
2026-04-25 10:50 53.63480 -4.27031 23189 ft 356 kts 271°
2026-04-25 10:51 53.63654 -4.31168 22744 ft 352 kts 271°
2026-04-25 10:51 53.63824 -4.35269 22303 ft 350 kts 271°
2026-04-25 10:51 53.63992 -4.39343 21863 ft 347 kts 271°
2026-04-25 10:51 53.64158 -4.43381 21435 ft 345 kts 271°
2026-04-25 10:52 53.64321 -4.47398 20997 ft 342 kts 271°
2026-04-25 10:52 53.64480 -4.51393 20585 ft 340 kts 272°
2026-04-25 10:52 53.64635 -4.55314 20171 ft 339 kts 272°
2026-04-25 10:52 53.64790 -4.59258 19755 ft 337 kts 272°
2026-04-25 10:53 53.64942 -4.63191 19341 ft 336 kts 272°
2026-04-25 10:53 53.65093 -4.67113 18930 ft 335 kts 272°
2026-04-25 10:53 53.65244 -4.71028 18521 ft 334 kts 271°
2026-04-25 10:53 53.65391 -4.74922 18070 ft 333 kts 271°
2026-04-25 10:54 53.65428 -4.78819 17382 ft 336 kts 260°
2026-04-25 10:54 53.65047 -4.81396 16986 ft 336 kts 249°
2026-04-25 10:54 53.64001 -4.86277 16449 ft 333 kts 249°
2026-04-25 10:54 53.63226 -4.89938 16044 ft 330 kts 249°
2026-04-25 10:55 53.62458 -4.93569 15663 ft 328 kts 249°
2026-04-25 10:55 53.61689 -4.97181 15276 ft 326 kts 249°
2026-04-25 10:55 53.60922 -5.00765 14892 ft 325 kts 248°
2026-04-25 10:55 53.60154 -5.04330 14504 ft 323 kts 248°
2026-04-25 10:56 53.59388 -5.07874 14119 ft 322 kts 248°
2026-04-25 10:56 53.58626 -5.11408 13707 ft 321 kts 248°
2026-04-25 10:56 53.57871 -5.14922 13316 ft 318 kts 249°
2026-04-25 10:56 53.57118 -5.18404 12917 ft 315 kts 248°
2026-04-25 10:57 53.56366 -5.21853 12541 ft 313 kts 248°
2026-04-25 10:57 53.55620 -5.25273 12150 ft 310 kts 248°
2026-04-25 10:57 53.54882 -5.28664 11766 ft 308 kts 249°
2026-04-25 10:57 53.54153 -5.32013 11478 ft 303 kts 249°
2026-04-25 10:58 53.53448 -5.35247 11324 ft 293 kts 249°
2026-04-25 10:58 53.52743 -5.38473 10766 ft 288 kts 249°
2026-04-25 10:58 53.52054 -5.41631 10276 ft 285 kts 249°
2026-04-25 10:58 53.51391 -5.44669 9877 ft 278 kts 249°
2026-04-25 10:59 53.50724 -5.47713 9482 ft 277 kts 249°
2026-04-25 10:59 53.50056 -5.50744 9106 ft 275 kts 249°
2026-04-25 10:59 53.49394 -5.53751 8704 ft 274 kts 249°
2026-04-25 10:59 53.48724 -5.56786 8160 ft 279 kts 249°
2026-04-25 11:00 53.48056 -5.59813 7777 ft 276 kts 249°
2026-04-25 11:00 53.47389 -5.62823 7405 ft 274 kts 249°
2026-04-25 11:00 53.46726 -5.65813 7028 ft 272 kts 249°
2026-04-25 11:00 53.46067 -5.68779 6633 ft 268 kts 249°
2026-04-25 11:01 53.45421 -5.71697 6127 ft 263 kts 249°
2026-04-25 11:01 53.44789 -5.74543 5710 ft 259 kts 249°
2026-04-25 11:01 53.44159 -5.77361 5309 ft 258 kts 249°
2026-04-25 11:01 53.43531 -5.80166 4927 ft 255 kts 249°
2026-04-25 11:02 53.42921 -5.82886 4791 ft 243 kts 249°
2026-04-25 11:02 53.42341 -5.85469 4659 ft 232 kts 249°
2026-04-25 11:02 53.41780 -5.87971 4445 ft 227 kts 249°
2026-04-25 11:02 53.41234 -5.90408 4251 ft 221 kts 248°
2026-04-25 11:03 53.40693 -5.92813 4044 ft 220 kts 248°
2026-04-25 11:03 53.40251 -5.95231 3744 ft 221 kts 266°
2026-04-25 11:03 53.40442 -5.97770 3462 ft 219 kts 277°
2026-04-25 11:03 53.40630 -6.00291 3161 ft 218 kts 274°
2026-04-25 11:04 53.40774 -6.02786 2866 ft 209 kts 273°
2026-04-25 11:04 53.40907 -6.05135 2628 ft 196 kts 273°
2026-04-25 11:04 53.41034 -6.07376 2342 ft 191 kts 273°
2026-04-25 11:04 53.41118 -6.08863 2163 ft 189 kts 273°
2026-04-25 11:05 53.41276 -6.11645 1823 ft 174 kts 272°
2026-04-25 11:05 53.41387 -6.13627 1592 ft 168 kts 273°
2026-04-25 11:05 53.41494 -6.15521 1389 ft 156 kts 273°
2026-04-25 11:05 53.41593 -6.17275 1174 ft 148 kts 272°
2026-04-25 11:06 53.41684 -6.18965 970 ft 145 kts 272°
2026-04-25 11:06 53.41759 -6.20656 771 ft 145 kts 274°
2026-04-25 11:06 53.41861 -6.22336 583 ft 145 kts 278°
2026-04-25 11:06 53.41973 -6.24006 382 ft 144 kts 276°
2026-04-25 11:07 53.42052 -6.25660 216 ft 137 kts 277°
2026-04-25 11:07 53.42134 -6.26988 214 ft 90 kts 274°
2026-04-25 11:07 53.42190 -6.27784 211 ft 58 kts 287°
2026-04-25 11:07 53.42301 -6.28099 211 ft 18 kts 316°
2026-04-25 11:08 53.42361 -6.28012 211 ft 16 kts 94°
2026-04-25 11:08 53.42351 -6.27820 215 ft 17 kts 95°
2026-04-25 11:08 53.42340 -6.27608 211 ft 19 kts 95°
2026-04-25 11:08 53.42326 -6.27377 211 ft 21 kts 96°
2026-04-25 11:09 53.42311 -6.27126 216 ft 22 kts 95°
2026-04-25 11:09 53.42297 -6.26858 211 ft 24 kts 95°
2026-04-25 11:09 53.42280 -6.26576 211 ft 25 kts 95°
2026-04-25 11:09 53.42265 -6.26282 211 ft 26 kts 95°
2026-04-25 11:10 53.42248 -6.25978 215 ft 27 kts 95°
2026-04-25 11:10 53.42236 -6.25771 213 ft 27 kts 96°
2026-04-25 11:10 53.42213 -6.25345 213 ft 28 kts 95°
2026-04-25 11:10 53.42195 -6.25022 211 ft 26 kts 95°
2026-04-25 11:11 53.42180 -6.24728 211 ft 23 kts 94°
2026-04-25 11:11 53.42167 -6.24458 211 ft 24 kts 96°
2026-04-25 11:11 53.42183 -6.24219 211 ft 16 kts 38°
2026-04-25 11:11 53.42258 -6.24069 214 ft 17 kts 76°
2026-04-25 11:12 53.42215 -6.23883 213 ft 11 kts 116°
2026-04-25 11:12 53.42211 -6.23795 215 ft 5 kts 26°
2026-04-25 11:12 53.42229 -6.23785 211 ft 2 kts 25°
2026-04-25 11:12 53.42230 -6.23784 211 ft 0 kts 25°